When you browse on this site, cookies collect data to enhance your experience and personalize the content and advertising you see.
Visit our Privacy Policy to learn more. By continuing to use the site, you agree to this use of cookies and data.
  • în România
  • Lista ţărilor
  • Pe 7 zile
  • Temperatura apei
  • Meteo pe hartă
  • Widget-uri
  • user-avatar
    Intrare

    Meteo pe oră la Uige

    Astăzi, 2 Iunie, Marţi

    Timp Temperatura Precipitaţii Vânt Presiune Umiditate
    00:00 +20°C° 0 mm 0 m/s 692 mmHg 91%
    01:00 +20°C° 0 mm 0 m/s 693 mmHg 85%
    02:00 +21°C° 0 mm 1 m/s 692 mmHg 88%
    03:00 +21°C° 0 mm 1 m/s 692 mmHg 92%
    04:00 +21°C° 0 mm 1 m/s 691 mmHg 95%
    05:00 +21°C° 0 mm 1 m/s 692 mmHg 93%
    06:00 +21°C° 0 mm 1 m/s 692 mmHg 91%
    07:00 +20°C° 0 mm 0 m/s 693 mmHg 92%
    08:00 +25°C° 0 mm 1 m/s 693 mmHg 78%
    09:00 +27°C° 0 mm 1 m/s 694 mmHg 65%
    10:00 +30°C° 0 mm 1 m/s 694 mmHg 51%
    11:00 +31°C° 0 mm 1 m/s 694 mmHg 46%
    12:00 +33°C° 0 mm 1 m/s 693 mmHg 40%
    13:00 +34°C° 0 mm 1 m/s 693 mmHg 34%
    14:00 +33°C° 0 mm 1 m/s 692 mmHg 38%
    15:00 +32°C° 0 mm 1 m/s 691 mmHg 41%
    16:00 +31°C° 0 mm 1 m/s 691 mmHg 44%
    17:00 +29°C° 0 mm 1 m/s 691 mmHg 52%
    18:00 +28°C° 0 mm 1 m/s 691 mmHg 60%
    19:00 +26°C° 0 mm 1 m/s 691 mmHg 68%
    20:00 +25°C° 0.1 mm 1 m/s 692 mmHg 74%
    21:00 +24°C° 0.1 mm 1 m/s 692 mmHg 81%
    22:00 +21°C° 0.1 mm 0 m/s 692 mmHg 87%
    23:00 +21°C° 0 mm 0 m/s 692 mmHg 90%

    Mâine, 3 Iunie, Miercuri

    Timp Temperatura Precipitaţii Vânt Presiune Umiditate
    00:00 +20°C° 0 mm 0 m/s 691 mmHg 92%
    01:00 +20°C° 0 mm 0 m/s 691 mmHg 94%
    02:00 +21°C° 0 mm 1 m/s 691 mmHg 95%
    03:00 +21°C° 0 mm 1 m/s 691 mmHg 97%
    04:00 +21°C° 0 mm 1 m/s 691 mmHg 98%
    05:00 +21°C° 0 mm 1 m/s 691 mmHg 96%
    06:00 +21°C° 0 mm 1 m/s 692 mmHg 95%
    07:00 +22°C° 0 mm 1 m/s 692 mmHg 93%
    08:00 +24°C° 0 mm 1 m/s 693 mmHg 79%
    09:00 +27°C° 0 mm 1 m/s 693 mmHg 65%
    10:00 +30°C° 0 mm 1 m/s 694 mmHg 52%
    11:00 +31°C° 0 mm 1 m/s 694 mmHg 47%
    12:00 +32°C° 0 mm 1 m/s 693 mmHg 42%
    13:00 +34°C° 0 mm 1 m/s 693 mmHg 38%
    14:00 +33°C° 0 mm 1 m/s 692 mmHg 42%
    15:00 +32°C° 0 mm 2 m/s 691 mmHg 45%
    16:00 +31°C° 0 mm 2 m/s 691 mmHg 49%
    17:00 +28°C° 0.1 mm 2 m/s 691 mmHg 61%
    18:00 +26°C° 0.1 mm 2 m/s 691 mmHg 72%
    19:00 +24°C° 0.1 mm 2 m/s 691 mmHg 84%
    20:00 +23°C° 0.1 mm 1 m/s 691 mmHg 87%
    21:00 +23°C° 0.1 mm 1 m/s 692 mmHg 90%
    22:00 +22°C° 0.1 mm 1 m/s 692 mmHg 93%
    23:00 +22°C° 0 mm 1 m/s 692 mmHg 95%

    Poimâine, 4 Iunie, Joi

    Timp Temperatura Precipitaţii Vânt Presiune Umiditate
    00:00 +21°C° 0 mm 1 m/s 692 mmHg 96%
    01:00 +21°C° 0 mm 1 m/s 692 mmHg 98%
    02:00 +21°C° 0 mm 1 m/s 692 mmHg 96%
    03:00 +21°C° 0 mm 1 m/s 691 mmHg 95%
    04:00 +21°C° 0 mm 1 m/s 691 mmHg 93%
    05:00 +21°C° 0 mm 1 m/s 692 mmHg 93%
    06:00 +21°C° 0 mm 1 m/s 692 mmHg 92%
    07:00 +19°C° 0 mm 0 m/s 692 mmHg 92%
    08:00 +21°C° 0 mm 0 m/s 693 mmHg 83%
    09:00 +23°C° 0 mm 0 m/s 693 mmHg 74%
    10:00 +25°C° 0 mm 0 m/s 694 mmHg 66%
    11:00 +28°C° 0 mm 0 m/s 693 mmHg 58%
    12:00 +30°C° 0 mm 0 m/s 693 mmHg 50%
    13:00 +32°C° 0 mm 0 m/s 693 mmHg 42%
    14:00 +31°C° 0 mm 0 m/s 692 mmHg 44%
    15:00 +32°C° 0 mm 1 m/s 691 mmHg 47%
    16:00 +31°C° 0 mm 1 m/s 691 mmHg 49%
    17:00 +29°C° 0.4 mm 1 m/s 691 mmHg 59%
    18:00 +25°C° 0.4 mm 0 m/s 691 mmHg 70%
    19:00 +22°C° 0.4 mm 0 m/s 691 mmHg 80%
    20:00 +22°C° 0.3 mm 0 m/s 691 mmHg 83%
    21:00 +21°C° 0.3 mm 0 m/s 692 mmHg 85%
    22:00 +21°C° 0.3 mm 0 m/s 692 mmHg 88%
    23:00 +20°C° 0 mm 0 m/s 692 mmHg 90%

    5 Iunie, Vineri

    Timp Temperatura Precipitaţii Vânt Presiune Umiditate
    00:00 +20°C° 0 mm 0 m/s 692 mmHg 91%
    01:00 +22°C° 0 mm 1 m/s 692 mmHg 92%
    02:00 +19°C° 0 mm 0 m/s 692 mmHg 93%
    03:00 +19°C° 0 mm 0 m/s 691 mmHg 94%
    04:00 +19°C° 0 mm 0 m/s 691 mmHg 94%
    05:00 +19°C° 0 mm 0 m/s 692 mmHg 92%
    06:00 +21°C° 0 mm 1 m/s 692 mmHg 90%
    07:00 +22°C° 0 mm 1 m/s 693 mmHg 88%
    08:00 +25°C° 0 mm 1 m/s 693 mmHg 75%
    09:00 +28°C° 0 mm 1 m/s 694 mmHg 62%
    10:00 +30°C° 0 mm 0 m/s 694 mmHg 49%
    11:00 +33°C° 0 mm 1 m/s 694 mmHg 45%
    12:00 +34°C° 0 mm 1 m/s 693 mmHg 41%
    13:00 +35°C° 0 mm 1 m/s 693 mmHg 37%
    14:00 +34°C° 0 mm 1 m/s 692 mmHg 42%
    15:00 +32°C° 0 mm 1 m/s 691 mmHg 47%
    16:00 +31°C° 0 mm 1 m/s 691 mmHg 52%
    17:00 +29°C° 0.2 mm 1 m/s 691 mmHg 60%
    18:00 +28°C° 0.2 mm 1 m/s 691 mmHg 67%
    19:00 +26°C° 0.2 mm 1 m/s 692 mmHg 75%
    20:00 +25°C° 0.5 mm 1 m/s 692 mmHg 81%
    21:00 +22°C° 0.5 mm 0 m/s 692 mmHg 86%
    22:00 +21°C° 0.5 mm 0 m/s 693 mmHg 91%
    23:00 +22°C° 0.1 mm 1 m/s 692 mmHg 93%

    6 Iunie, Sâmbătă

    Timp Temperatura Precipitaţii Vânt Presiune Umiditate
    00:00 +22°C° 0.1 mm 1 m/s 692 mmHg 94%
    01:00 +22°C° 0.1 mm 1 m/s 692 mmHg 96%
    02:00 +21°C° 0 mm 1 m/s 692 mmHg 96%
    03:00 +21°C° 0 mm 1 m/s 691 mmHg 97%
    04:00 +21°C° 0 mm 1 m/s 691 mmHg 98%
    05:00 +21°C° 0 mm 1 m/s 692 mmHg 97%
    06:00 +21°C° 0 mm 1 m/s 692 mmHg 96%
    07:00 +21°C° 0 mm 1 m/s 693 mmHg 95%
    08:00 +24°C° 0 mm 1 m/s 693 mmHg 82%
    09:00 +27°C° 0 mm 1 m/s 694 mmHg 70%
    10:00 +30°C° 0 mm 1 m/s 694 mmHg 57%
    11:00 +32°C° 0 mm 1 m/s 694 mmHg 51%
    12:00 +33°C° 0 mm 1 m/s 693 mmHg 45%
    13:00 +35°C° 0 mm 1 m/s 693 mmHg 38%
    14:00 +33°C° 0 mm 1 m/s 692 mmHg 44%
    15:00 +32°C° 0 mm 1 m/s 691 mmHg 49%
    16:00 +30°C° 0 mm 1 m/s 691 mmHg 54%
    17:00 +29°C° 0.1 mm 1 m/s 691 mmHg 59%
    18:00 +27°C° 0.1 mm 1 m/s 691 mmHg 65%
    19:00 +26°C° 0.1 mm 1 m/s 692 mmHg 71%
    20:00 +25°C° 0 mm 1 m/s 692 mmHg 74%
    21:00 +22°C° 0 mm 0 m/s 692 mmHg 77%
    22:00 +21°C° 0 mm 0 m/s 692 mmHg 80%
    23:00 +21°C° 0 mm 0 m/s 692 mmHg 82%

    7 Iunie, Duminică

    Timp Temperatura Precipitaţii Vânt Presiune Umiditate
    00:00 +20°C° 0 mm 0 m/s 692 mmHg 84%
    01:00 +19°C° 0 mm 0 m/s 692 mmHg 87%
    02:00 +19°C° 0 mm 0 m/s 691 mmHg 89%
    03:00 +20°C° 0 mm 1 m/s 691 mmHg 90%
    04:00 +20°C° 0 mm 1 m/s 691 mmHg 92%
    05:00 +20°C° 0 mm 1 m/s 691 mmHg 91%
    06:00 +21°C° 0 mm 1 m/s 692 mmHg 90%
    07:00 +21°C° 0 mm 1 m/s 692 mmHg 89%
    08:00 +24°C° 0 mm 1 m/s 693 mmHg 76%
    09:00 +27°C° 0 mm 1 m/s 693 mmHg 63%
    10:00 +30°C° 0 mm 2 m/s 694 mmHg 50%
    11:00 +32°C° 0 mm 1 m/s 693 mmHg 44%
    12:00 +33°C° 0 mm 1 m/s 693 mmHg 37%
    13:00 +35°C° 0 mm 1 m/s 692 mmHg 31%
    14:00 +34°C° 0 mm 1 m/s 692 mmHg 32%
    15:00 +34°C° 0 mm 1 m/s 691 mmHg 33%
    16:00 +33°C° 0 mm 1 m/s 691 mmHg 35%
    17:00 +29°C° 0 mm 0 m/s 691 mmHg 42%
    18:00 +26°C° 0 mm 0 m/s 691 mmHg 49%
    19:00 +24°C° 0 mm 0 m/s 691 mmHg 57%
    20:00 +23°C° 0 mm 0 m/s 691 mmHg 61%
    21:00 +22°C° 0 mm 0 m/s 692 mmHg 65%
    22:00 +21°C° 0 mm 0 m/s 692 mmHg 68%
    23:00 +22°C° 0 mm 1 m/s 692 mmHg 74%
    Arată mai mult